Weather History for Emporia, KS

Change the Weather History Date:

Thursday, February 21, 2013

  Actual Average Record
Temperature  
Mean Temperature 26 °F 37 °F  
Max Temperature 29 °F 48 °F 69 °F (2000)
Min Temperature 22 °F 26 °F 15 °F (2006)
Degree Days  
Heating Degree Days 39 28  
Month to date heating degree days 610 647  
Since 1 July heating degree days 3327 3635  
Cooling Degree Days 0 0  
Month to date cooling degree days 0 0  
Year to date cooling degree days 0 0  
Moisture  
Dew Point 23 °F    
Average Humidity 87    
Maximum Humidity 100    
Minimum Humidity 74    
Precipitation  
Precipitation 0.58 in 0.04 in 0.58 in (2013)
Month to date precipitation 1.98 0.92  
Year to date precipitation 2.47 1.55  
Sea Level Pressure  
Sea Level Pressure 29.83 in    
Wind  
Wind Speed 13 mph (East)    
Max Wind Speed 25 mph    
Max Gust Speed 30 mph    
Visibility 2 miles    
Events Fog , Rain , Snow    
T = Trace of Precipitation, MM = Missing Value Source: NWS Daily Summary

Daily Weather History Graph

Daily Weather History Graph

Search for Another Location

Airport:

Trip Planner

Search our weather history database for the weather conditions in past years. The results will help you decide how hot, cold, wet, or windy it might be!

Date:

Astronomy

Feb. 21, 2013 Rise Set
Actual Time 7:07 AM CST 6:09 PM CST
Civil Twilight 6:40 AM CST 6:36 PM CST
Nautical Twilight 6:09 AM CST 7:07 PM CST
Astronomical Twilight 5:39 AM CST 7:38 PM CST
Moon 2:27 PM CST (2/21) 4:10 AM CST (2/21)
Length of Visible Light 11h 56m
Length of Day
11h 02m
Waxing Gibbous, 84% of the Moon is Illuminated
Feb 21
Waxing Gibbous
Feb 25
Full
Mar 4
Last Quarter
Mar 11
New
Mar 19
First Quarter

Hourly Weather History & Observations

Time (CST) Temp. Windchill Dew Point Humidity Pressure Visibility Wind Dir Wind Speed Gust Speed Precip Events Conditions
12:53 AM 24.1 °F 10.6 °F 18.0 °F 77% 30.12 in 10.0 mi East 17.3 mph - 0.00 in   Overcast
1:53 AM 24.1 °F 12.5 °F 19.0 °F 81% 30.09 in 10.0 mi ENE 12.7 mph - 0.00 in   Overcast
2:53 AM 24.1 °F 12.5 °F 18.0 °F 77% 30.07 in 7.0 mi ENE 12.7 mph - 0.00 in   Overcast
3:27 AM 24.8 °F 11.9 °F 19.4 °F 80% 29.99 in 1.8 mi ENE 16.1 mph - 0.01 in Snow Light Snow
3:48 AM 23.0 °F 9.6 °F 19.4 °F 86% 29.96 in 3.0 mi ENE 16.1 mph - 0.01 in   Overcast
3:53 AM 23.0 °F 10.1 °F 19.9 °F 88% 30.02 in 3.0 mi ENE 15.0 mph - 0.01 in   Overcast
4:32 AM 23.0 °F 8.3 °F 19.4 °F 86% 29.93 in 2.5 mi ENE 19.6 mph - 0.00 in Snow Light Snow
4:36 AM 23.0 °F 8.7 °F 19.4 °F 86% 29.94 in 1.8 mi ENE 18.4 mph 26.5 mph 0.00 in Snow Light Snow
4:42 AM 23.0 °F 9.6 °F 19.4 °F 86% 29.95 in 1.0 mi East 16.1 mph 26.5 mph 0.01 in Snow Light Snow
4:51 AM 23.0 °F 9.6 °F 19.4 °F 86% 29.95 in 0.5 mi East 16.1 mph - 0.01 in Fog , Snow Snow
4:52 AM 23.0 °F 10.1 °F 19.9 °F 88% 30.00 in 0.5 mi ENE 15.0 mph - 0.01 in Fog , Snow Snow
5:06 AM 21.2 °F 6.8 °F 19.4 °F 93% 29.93 in 0.2 mi East 17.3 mph - 0.02 in Fog , Snow Heavy Snow
5:22 AM 21.2 °F 6.4 °F 19.4 °F 93% 29.92 in 0.2 mi ENE 18.4 mph - 0.05 in Fog , Snow Heavy Snow
5:33 AM 21.2 °F 6.0 °F 19.4 °F 93% 29.91 in 0.2 mi East 19.6 mph 28.8 mph 0.07 in Fog , Snow Heavy Snow
5:53 AM 21.9 °F 8.2 °F 19.9 °F 92% 29.96 in 0.2 mi ENE 16.1 mph - 0.11 in Fog , Snow Heavy Snow
6:16 AM 21.2 °F 7.3 °F 19.4 °F 93% 29.91 in 0.2 mi ENE 16.1 mph - 0.05 in Fog , Snow Heavy Snow
6:24 AM 21.2 °F 6.8 °F 19.4 °F 93% 29.92 in 0.2 mi ENE 17.3 mph - 0.07 in Fog , Snow Heavy Snow
6:53 AM 21.9 °F 7.3 °F 19.9 °F 92% 29.98 in 0.2 mi East 18.4 mph - 0.16 in Fog , Snow Heavy Snow
7:51 AM 21.2 °F 5.6 °F 19.4 °F 93% 29.87 in 0.2 mi ENE 20.7 mph - 0.13 in Fog , Snow Light Snow
7:53 AM 21.9 °F 6.9 °F 19.9 °F 92% 29.92 in 0.2 mi ENE 19.6 mph - 0.13 in Fog , Snow Light Snow
8:02 AM 21.2 °F 6.4 °F 19.4 °F 93% 29.87 in 0.5 mi ENE 18.4 mph - 0.00 in Fog , Snow Snow
8:53 AM 21.9 °F 7.8 °F 19.9 °F 92% 29.89 in 0.2 mi ENE 17.3 mph - 0.03 in Fog , Snow Heavy Snow
9:26 AM 21.2 °F 5.6 °F 19.4 °F 93% 29.82 in 0.8 mi East 20.7 mph 25.3 mph 0.01 in Snow Light Snow
9:46 AM 23.0 °F 8.3 °F 19.4 °F 86% 29.80 in 1.2 mi East 19.6 mph 29.9 mph 0.02 in Snow Light Snow
9:53 AM 23.0 °F 7.6 °F 19.9 °F 88% 29.85 in 1.8 mi East 21.9 mph 28.8 mph 0.02 in Snow Light Snow
10:01 AM 23.0 °F 7.2 °F 19.4 °F 86% 29.79 in 2.5 mi East 23.0 mph 29.9 mph 0.00 in   Overcast
10:17 AM 23.0 °F 7.6 °F 19.4 °F 86% 29.79 in 3.0 mi East 21.9 mph 27.6 mph 0.00 in   Overcast
10:53 AM 24.1 °F 10.6 °F 19.9 °F 84% 29.86 in 6.0 mi East 17.3 mph - 0.01 in   Overcast
11:26 AM 24.8 °F 11.5 °F 21.2 °F 86% 29.78 in 1.8 mi East 17.3 mph - N/A   Overcast
11:49 AM 24.8 °F 11.1 °F 23.0 °F 93% 29.77 in 1.5 mi East 18.4 mph - N/A   Overcast
11:53 AM 26.1 °F 12.7 °F 23.0 °F 88% 29.81 in 1.5 mi East 18.4 mph - N/A   Overcast
12:33 PM 26.6 °F 14.7 °F 24.8 °F 93% 29.75 in 1.2 mi East 15.0 mph - N/A   Overcast
12:42 PM 28.4 °F 17.0 °F 26.6 °F 93% 29.75 in 1.0 mi East 15.0 mph - N/A   Overcast
12:53 PM 28.0 °F 16.1 °F 26.1 °F 92% 29.79 in 1.0 mi East 16.1 mph - N/A   Overcast
1:30 PM 28.4 °F 16.2 °F 26.6 °F 93% 29.74 in 1.0 mi East 17.3 mph - 0.00 in Rain Light Freezing Rain
1:53 PM 28.9 °F 18.2 °F 27.0 °F 92% 29.78 in 1.0 mi East 13.8 mph - 0.00 in Rain Light Freezing Rain
2:04 PM 28.4 °F 15.4 °F 26.6 °F 93% 29.71 in 0.8 mi East 19.6 mph - 0.00 in Snow Light Snow
2:53 PM 28.0 °F 18.6 °F 27.0 °F 96% 29.77 in 0.5 mi East 10.4 mph - 0.01 in Fog , Snow Light Snow
3:13 PM 28.4 °F 20.4 °F 26.6 °F 93% 29.72 in 0.5 mi East 8.1 mph - 0.01 in Fog , Snow Light Snow
3:20 PM 28.4 °F 21.2 °F 26.6 °F 93% 29.72 in 0.2 mi East 6.9 mph - 0.01 in Fog , Snow Light Snow
3:53 PM 28.9 °F 21.9 °F 27.0 °F 92% 29.77 in 0.5 mi ENE 6.9 mph - 0.02 in Fog , Snow Light Snow
4:16 PM 28.4 °F 20.4 °F 28.4 °F 100% 29.71 in 1.0 mi ENE 8.1 mph - 0.01 in Rain Light Freezing Rain
4:22 PM 28.4 °F 20.4 °F 28.4 °F 100% 29.72 in 1.5 mi East 8.1 mph - 0.01 in Rain Light Freezing Rain
4:37 PM 28.4 °F 19.1 °F 26.6 °F 93% 29.71 in 2.0 mi East 10.4 mph - 0.01 in Rain Light Freezing Rain
4:53 PM 28.9 °F 21.1 °F 28.0 °F 96% 29.77 in 2.0 mi East 8.1 mph - 0.01 in Snow Light Snow
4:56 PM 28.4 °F 19.7 °F 28.4 °F 100% 29.72 in 1.2 mi East 9.2 mph - 0.00 in Snow Light Snow
4:59 PM 28.4 °F 20.4 °F 28.4 °F 100% 29.72 in 0.8 mi East 8.1 mph - 0.01 in Snow Light Snow
5:53 PM 28.9 °F 22.8 °F 28.0 °F 96% 29.77 in 1.2 mi East 5.8 mph - 0.03 in Snow Light Snow
5:58 PM 28.4 °F 23.3 °F 28.4 °F 100% 29.72 in 2.0 mi East 4.6 mph - 0.00 in Snow Light Snow
6:09 PM 28.4 °F 23.3 °F 28.4 °F 100% 29.73 in 1.8 mi East 4.6 mph - 0.00 in Snow Light Snow
6:32 PM 28.4 °F 24.6 °F 28.4 °F 100% 29.74 in 2.5 mi ESE 3.5 mph - 0.01 in Snow Light Snow
6:41 PM 28.4 °F - 28.4 °F 100% 29.74 in 4.0 mi Calm Calm - 0.01 in Snow Light Snow
6:53 PM 28.9 °F - 27.0 °F 92% 29.79 in 6.0 mi Calm Calm - 0.01 in   Overcast
7:00 PM 28.4 °F 24.6 °F 26.6 °F 93% 29.74 in 6.0 mi East 3.5 mph - N/A   Overcast
7:30 PM 28.4 °F 24.6 °F 28.4 °F 100% 29.74 in 1.8 mi East 3.5 mph - 0.00 in Snow Light Snow
7:35 PM 28.4 °F 23.3 °F 28.4 °F 100% 29.73 in 1.0 mi East 4.6 mph - 0.00 in Snow Light Snow
7:53 PM 28.0 °F 24.2 °F 27.0 °F 96% 29.78 in 1.0 mi East 3.5 mph - 0.01 in Snow Light Snow
8:04 PM 28.4 °F 24.6 °F 26.6 °F 93% 29.74 in 1.2 mi East 3.5 mph - 0.00 in Snow Light Snow
8:12 PM 26.6 °F - 26.6 °F 100% 29.74 in 1.8 mi Calm Calm - 0.00 in Snow Light Snow
8:19 PM 26.6 °F - 26.6 °F 100% 29.74 in 2.5 mi Calm Calm - 0.00 in Snow Light Snow
8:28 PM 26.6 °F - 26.6 °F 100% 29.74 in 3.0 mi Calm Calm - 0.00 in   Overcast
9:22 PM 28.4 °F - 26.6 °F 93% 29.74 in 1.8 mi Calm Calm - 0.00 in Snow Light Snow
9:39 PM 28.4 °F - 26.6 °F 93% 29.74 in 3.0 mi Calm Calm - 0.00 in Snow Light Snow
9:53 PM 28.0 °F 22.8 °F 27.0 °F 96% 29.80 in 3.0 mi WNW 4.6 mph - 0.00 in   Overcast
10:28 PM 24.8 °F 11.1 °F 21.2 °F 86% 29.77 in 10.0 mi WNW 18.4 mph - 0.01 in   Overcast
10:53 PM 24.1 °F 11.0 °F 21.0 °F 88% 29.83 in 10.0 mi WNW 16.1 mph - 0.01 in   Overcast
11:53 PM 23.0 °F 11.7 °F 21.0 °F 92% 29.87 in 8.0 mi WNW 11.5 mph - N/A   Overcast